STARLINK-36392, 68115

Orbit data source: Space-Track

STARLINK-36392, 68115 is a payload satellite owned by SpaceX/Seattle (US) in SSO that was launched on Sun, 08 Mar 2026 UTC via an FALCON 9 launch vehicle from the Air Force Western Test Range (AFWTR). Payload-class satellites include a variety of spacecraft equipped with specific instruments for various scientific and technological missions. These include communications satellites like Starlink; space stations such as the ISS; scientific satellites like the Hubble; Earth observation satellites from companies like Planet Labs, Umbra, and HawkEye 360; GPS; miniature CubeSats for education and research; and military/defense satellites.

Loading next visibility...
Identifier
68115, 2026-044Q
Orbit
SSO
Country
Flag of USUS
Related business
Manufacturer
SpaceX/Seattle
Mission
Operational spacecraft
Bus & Motor
STARLINK V2MO, Unknown motor
Mass
575 kg wet, ~530 kg dry
Launch date (UTC)
2026-03-08 (2 months ago)
Launch vehicle
FALCON 9
Launch site
Air Force Western Test Range (AFWTR)
Object type
Payload
Rocket body
Debris
Shape & HBR
Unknown shape, 17.7 m
Radar Cross Section
RCS unknown

Expand to show TLE details & history
Last TLE update: 8 hours ago

TLE from 8 hours ago
0 STARLINK-36392
1 68115U 26044Q   26119.58334491 -.00012419  00000-0 -38278-3 0  9993
2 68115  97.2856  80.5925 0001958  91.6856 280.7835 15.33459168  5987
Epoch: 2026-04-29T14:00Z
TLE epoch observation values (Epoch: 2026-04-29T14:00:01.000Z)
Latitude
12.30162°
Longitude
11.4574°
Altitude
467.597 km
Speed
7.634 km/s
True Right ascension
05h 16m 00s
True Declination
12° 13' 38"
Sunlit
Object was in daylight at epoch
Visualization orbit readout
Latitude
Unknown
Longitude
Unknown
Altitude
Unknown
Speed
Unknown
Apparent Right ascension
Unknown
Apparent Declination
Unknown
Sunlit
N/A
Visualization observer readout
Local Sidereal Time
05:38:40
Azimuth
Unknown
Elevation
Unknown
Doppler factor
Unknown
Orbital elements
Apogee altitude
463.783 km
Perigee altitude
461.104 km
Semi-major axis
6,840.581 km
Eccentricity
0.0002
Inclination
97.2856°
RAAN
80.5925°
Arg. of periapsis
91.6856°
True anomaly
280.76146°
Mean anomaly
280.7835°
Eccentric anomaly
280.77248°
Mean motion
3.83622 °/min
Orbital period
93.84 mins
BSTAR
-0.00038278
Loading maneuver chart data...
Computing Atmospheric mass density...
Loading historical data...
Loading historical data...
Loading historical data...
Loading historical data...
Loading historical data...
Loading historical data...
Loading historical data...

Documentation

Showing up to 5 results
|